User: anonymous   Login
Location: Unspecified
(0.0000°N, 0.0000°E)
Time: 23:49:53
(UTC+00:00)
Language:

DSAT - Orbit

View from above orbital plane
View from above orbital plane
View from above satellite
View from above satellite

Ground track
Ground track

The orbit data is extracted from the following two-line orbital elements,

1 42794U 17036AF  21023.58240651  .00000306  00000-0  31790-4 0  9995
2 42794  97.4739  51.0810 0125538 350.7428   9.1477 14.91431438195466
Epoch (UTC): 23 January 2021 13:58:39
Eccentricity: 0.0125538
inclination: 97.4739°
perigee height: 506 km
apogee height: 681 km
right ascension of ascending node: 51.0810°
argument of perigee: 350.7428°
revolutions per day: 14.91431438
mean anomaly at epoch: 9.1477°
orbit number at epoch: 19546

The dashed part of the orbit path shows where the satellite is in the earth's shadow,  

DLR